FW1737 Weather Reports


Display with metric or nautical units.
time (UTC)temp
F
wind
direction
speed
MPH
gust
MPH
rain 1hr
in
rain 24hr
in
rain mn
in
humidity
%
barometer
mb
20260901044512 50 216 0.0 2.0 0.00 0.00 0.00 98 1016.4
20260901043011 50 216 0.0 1.0 0.00 0.00 0.00 98 1016.3
20260901041510 50 216 0.0 2.0 0.00 0.00 0.00 98 1016.3
20260901040015 50 216 0.0 3.0 0.00 0.00 0.00 97 1016.3
20260901034506 51 218 3.0 5.0 0.00 0.00 0.00 97 1016.2
20260901033003 51 224 3.0 5.0 0.00 0.00 0.00 98 1016.1
20260901031502 51 288 0.0 0.0 0.00 0.00 0.00 96 1016.0
20260901030059 51 288 0.0 0.0 0.00 0.00 0.00 96 1016.0
20260901024607 51 288 0.0 1.0 0.00 0.00 0.00 96 1015.8
20260901023058 51 287 0.0 0.0 0.00 0.00 0.00 95 1015.8
20260901021556 52 287 0.0 0.0 0.00 0.00 0.00 93 1015.7
20260901020050 53 288 0.0 2.0 0.00 0.00 0.00 90 1015.7
20260901014552 55 287 0.0 3.0 0.00 0.00 0.00 90 1015.6
20260901013046 56 285 0.0 4.0 0.00 0.00 0.00 89 1015.7
20260901011544 56 297 1.0 7.0 0.00 0.00 0.00 89 1015.7
20260901010045 56 237 1.0 4.0 0.00 0.00 0.00 88 1015.7
20260901004542 56 294 1.0 4.0 0.00 0.00 0.00 87 1015.7
20260901003040 57 298 1.0 4.0 0.00 0.00 0.00 87 1015.5
20260901001538 57 279 0.0 5.0 0.00 0.00 0.00 86 1015.5
20260901000038 58 258 1.0 4.0 0.00 0.00 0.00 84 1015.1
20260831234533 59 271 0.0 4.0 0.00 0.00 0.00 82 1015.3
20260831233032 59 279 4.0 9.0 0.00 0.00 0.00 81 1015.1
20260831231531 60 304 0.0 9.0 0.00 0.00 0.00 80 1015.2
20260831230031 60 274 3.0 11.0 0.00 0.00 0.00 80 1015.2
20260831224524 60 345 6.0 12.0 0.00 0.00 0.00 79 1014.8
20260831223022 61 307 2.0 9.0 0.00 0.00 0.00 79 1014.5
20260831221531 62 273 0.0 11.0 0.00 0.00 0.00 79 1014.6
20260831220020 62 251 4.0 12.0 0.00 0.00 0.00 78 1014.5
20260831214533 62 290 3.0 15.0 0.00 0.00 0.00 78 1014.4
20260831213018 63 319 3.0 8.0 0.00 0.00 0.00 79 1014.3
20260831211521 63 265 4.0 13.0 0.00 0.00 0.00 78 1014.1
20260831210015 63 326 6.0 12.0 0.00 0.00 0.00 77 1013.9
20260831204514 64 247 6.0 17.0 0.00 0.00 0.00 76 1013.7
20260831203013 64 229 4.0 16.0 0.00 0.00 0.00 77 1013.5
20260831201516 65 311 3.0 14.0 0.00 0.00 0.00 74 1013.3
20260831200016 65 331 5.0 10.0 0.00 0.00 0.00 74 1013.1
20260831194509 66 325 4.0 15.0 0.00 0.00 0.00 74 1013.1
20260831193008 66 28 4.0 10.0 0.00 0.00 0.00 75 1013.0
20260831191506 67 266 3.0 11.0 0.00 0.00 0.00 73 1012.8
20260831190006 66 336 4.0 14.0 0.00 0.00 0.00 75 1012.6
20260831184506 67 52 2.0 17.0 0.00 0.00 0.00 73 1012.2
20260831183001 68 278 7.0 14.0 0.00 0.00 0.00 69 1012.2
20260831181500 66 298 6.0 16.0 0.00 0.00 0.00 74 1012.2
20260831180059 67 283 6.0 11.0 0.00 0.00 0.00 74 1012.0
20260831174608 67 290 5.0 14.0 0.00 0.00 0.00 72 1011.9
20260831173057 67 247 6.0 18.0 0.00 0.00 0.00 70 1011.8
20260831171555 68 350 7.0 20.0 0.00 0.00 0.00 70 1011.5
20260831170054 69 288 10.0 20.0 0.00 0.00 0.00 69 1011.3
20260831164603 69 276 7.0 15.0 0.00 0.00 0.00 68 1011.1
20260831163051 70 326 4.0 13.0 0.00 0.00 0.00 68 1011.1
20260831161550 70 344 5.0 19.0 0.00 0.00 0.00 64 1010.9
20260831160049 70 9 8.0 20.0 0.00 0.00 0.00 63 1010.8
20260831154602 70 298 6.0 19.0 0.00 0.00 0.00 67 1010.6
20260831153047 71 18 3.0 16.0 0.00 0.00 0.00 62 1010.5
20260831151547 70 227 5.0 17.0 0.00 0.00 0.00 65 1010.6
20260831150043 70 340 5.0 18.0 0.00 0.00 0.00 68 1010.6
20260831144542 69 296 5.0 20.0 0.00 0.00 0.00 72 1010.6
20260831143040 70 296 6.0 17.0 0.00 0.00 0.00 68 1010.5
20260831141538 69 49 6.0 13.0 0.00 0.00 0.00 66 1010.3
20260831140041 69 348 4.0 13.0 0.00 0.00 0.00 69 1010.3
20260831134535 68 5 9.0 17.0 0.00 0.00 0.00 70 1010.2
20260831133035 68 350 7.0 15.0 0.00 0.00 0.00 71 1010.1
20260831131541 69 235 6.0 14.0 0.00 0.00 0.00 72 1010.0
20260831130036 68 16 4.0 16.0 0.00 0.00 0.00 76 1009.9
20260831124531 67 5 2.0 17.0 0.00 0.00 0.00 81 1009.8
20260831123021 65 296 2.0 13.0 0.00 0.00 0.00 82 1009.7
20260831121520 63 276 3.0 14.0 0.00 0.00 0.00 85 1009.6
20260831120025 63 267 3.0 9.0 0.00 0.00 0.00 86 1009.5
20260831114518 62 298 4.0 9.0 0.00 0.00 0.00 88 1009.4
20260831113017 62 293 2.0 9.0 0.00 0.00 0.00 89 1009.3
20260831111517 62 304 3.0 10.0 0.00 0.00 0.00 89 1009.3
20260831110014 62 304 2.0 9.0 0.00 0.00 0.00 91 1009.3
20260831104512 62 279 2.0 7.0 0.00 0.00 0.00 94 1009.2
20260831103010 61 263 2.0 11.0 0.00 0.00 0.00 94 1009.3
20260831101510 61 274 2.0 8.0 0.00 0.00 0.00 95 1008.9
20260831100008 61 309 2.0 7.0 0.00 0.00 0.00 95 1008.8
20260831094508 60 258 2.0 8.0 0.00 0.00 0.00 96 1008.7
20260831093008 59 292 1.0 4.0 0.00 0.00 0.00 97 1009.0
20260831091506 59 260 0.0 3.0 0.00 0.00 0.00 97 1008.7
20260831090005 59 240 0.0 0.0 0.00 0.00 0.00 98 1008.8
20260831084509 59 240 0.0 2.0 0.00 0.00 0.00 98 1008.7
20260831083003 59 240 1.0 4.0 0.00 0.00 0.00 98 1008.4
20260831081502 59 233 1.0 4.0 0.00 0.00 0.00 97 1008.3
20260831080005 59 233 0.0 2.0 0.00 0.00 0.00 97 1008.2
20260831074558 60 233 0.0 4.0 0.00 0.00 0.00 97 1008.1
20260831073058 60 233 2.0 4.0 0.00 0.00 0.00 96 1008.5
20260831071557 60 260 1.0 3.0 0.00 0.00 0.00 95 1008.4
20260831070053 61 336 0.0 2.0 0.00 0.00 0.00 94 1008.5
20260831064551 61 336 0.0 2.0 0.00 0.00 0.00 94 1008.7
20260831063049 62 355 0.0 3.0 0.00 0.00 0.00 94 1008.8
20260831061548 62 298 1.0 6.0 0.00 0.00 0.00 93 1008.7
20260831060047 63 355 0.0 9.0 0.00 0.00 0.00 93 1008.9
20260831054544 63 289 4.0 11.0 0.00 0.00 0.00 93 1008.7
20260831053043 63 316 2.0 14.0 0.00 0.00 0.00 95 1008.7
20260831051551 63 319 2.0 5.0 0.00 0.00 0.00 96 1009.0
20260831050038 63 238 3.0 9.0 0.00 0.00 0.00 97 1009.2
20260831044638 62 224 2.0 4.0 0.00 0.00 0.00 97 1009.1